• Join FlightAware (Why Join?)
  • Login
  • US Flag 
04:25AM EST


 

Airport Tracker/Info


-or-


 

Live Flight TrackerFlight Track Log ✈ EJA922 ✈ 10-Jan-2014 ✈ CYYZ - KMKE

Flight Track Log - Related Links

Times and Time Zones

All times are in EST time to prevent confusion due to time zone crossing. See the EJA922 flight status page for this flight to view local times or setup timezone preferences in your user account.

Time Position Orientation Groundspeed Altitude Reporting Facility
EST Latitude Longitude Course Direction KTS MPH feet Rate Location/Type
10:58AM 43.6333 -79.6333 255° West 170 196 3,100  Level Toronto Center
10:59AM 43.5833 -79.6833 216° Southwest 230 265 6,400 3,650 Climbing Toronto Center
11:00AM 43.5667 -79.7667 255° West 230 265 10,400 3,800 Climbing Toronto Center
11:01AM 43.5833 -79.8667 283° West 250 288 14,000 3,250 Climbing Toronto Center
11:02AM 43.6000 -79.9500 285° West 290 334 16,900 2,400 Climbing Toronto Center
11:03AM 43.6167 -80.1000 279° West 330 380 18,800 1,950 Climbing Toronto Center
11:04AM 43.6793 -80.8534 255° West  Level FlightAware Approximate
11:04AM 43.6167 -80.2333 270° West 360 414 20,800  Level Toronto Center
11:05AM 43.6167 -80.4000 270° West 390 449 22,000 600 Climbing Toronto Center
11:06AM 43.6000 -80.5333 260° West 420 483 22,000  Level Toronto Center
11:07AM 43.6000 -80.7167 270° West 420 483 22,000  Level Toronto Center
11:08AM 43.5667 -80.8500 251° West 420 483 22,000  Level Toronto Center
11:09AM 43.5667 -81.0167 270° West 420 483 22,000  Level Toronto Center
11:10AM 43.5500 -81.1667 261° West 430 495 22,000  Level Toronto Center
11:11AM 43.5500 -81.3333 270° West 420 483 22,000  Level Toronto Center
11:12AM 43.5333 -81.5000 262° West 400 460 22,000  Level Toronto Center
11:13AM 43.5333 -81.6333 270° West 390 449 22,000  Level Toronto Center
11:14AM 43.5167 -81.8000 262° West 400 460 22,000  Level Toronto Center
11:15AM 43.5000 -81.9500 261° West 420 483 22,000  Level Toronto Center
11:16AM 43.5000 -82.1167 270° West 420 483 22,000  Level Toronto Center
11:17AM 43.4833 -82.2833 262° West 420 483 22,000  Level Toronto Center
11:18AM 43.4833 -82.4333 270° West 420 483 22,000  Level Toronto Center
11:19AM 43.4667 -82.6000 262° West 420 483 22,000  Level Toronto Center
11:20AM 43.4500 -82.7500 261° West 410 472 22,000  Level Toronto Center
11:21AM 43.4333 -82.9167 262° West 410 472 22,000  Level Toronto Center
11:22AM 43.4333 -83.0500 270° West 410 472 22,000  Level Toronto Center
11:23AM 43.4344 -83.1306 271° West 416 479 22,000  Level Cleveland Center
11:24AM 43.4228 -83.2883 264° West 418 481 22,000  Level Cleveland Center
11:25AM 43.4106 -83.4383 264° West 402 463 22,000  Level Cleveland Center
11:26AM 43.3947 -83.6200 263° West 401 461 22,000  Level Cleveland Center
11:27AM 43.3825 -83.7736 264° West 405 466 22,000  Level Cleveland Center
11:28AM 43.3689 -83.9272 263° West 407 468 22,000  Level Cleveland Center
11:29AM 43.3550 -84.0978 264° West 413 475 22,000  Level Cleveland Center
11:30AM 43.3417 -84.2550 263° West 416 479 22,000  Level Cleveland Center
11:31AM 43.3269 -84.4114 263° West 415 478 22,000  Level Cleveland Center
11:32AM 43.3128 -84.5678 263° West 414 476 22,000  Level Cleveland Center
11:33AM 43.2989 -84.7250 263° West 416 479 22,000  Level Cleveland Center
11:34AM 43.2839 -84.8797 262° West 412 474 22,000  Level Cleveland Center
11:35AM 43.2692 -85.0356 263° West 413 475 22,000  Level Cleveland Center
11:36AM 43.2489 -85.2544 263° West 414 476 22,000  Level Chicago Center
11:37AM 43.2333 -85.4094 262° West 413 475 22,000  Level Chicago Center
11:38AM 43.2172 -85.5647 262° West 414 476 22,000  Level Chicago Center
11:39AM 43.2025 -85.7208 263° West 415 478 22,000  Level Chicago Center
11:41AM 43.1867 -85.8747 262° West 415 478 22,000  Level Chicago Center
11:42AM 43.1714 -86.0289 262° West 418 481 22,000  Level Chicago Center
11:43AM 43.1669 -86.2153 268° West 419 482 22,000 -390 Level Chicago Center
11:44AM 43.1650 -86.3717 269° West 415 478 21,200 -1,268 Descending Chicago Center
11:45AM 43.1617 -86.5281 268° West 414 476 19,400 -1,707 Descending Chicago Center
11:46AM 43.1586 -86.6772 268° West 396 456 17,700 -1,707 Descending Chicago Center
11:47AM 43.1561 -86.8247 269° West 390 449 15,900 -1,707 Descending Chicago Center
11:48AM 43.1536 -86.9689 269° West 383 441 14,200 -1,659 Descending Chicago Center
11:49AM 43.1494 -87.1228 268° West 341 392 12,500 -1,561 Descending Chicago Center
11:50AM 43.1461 -87.2528 268° West 344 396 11,000 -1,220 Descending Chicago Center
11:51AM 43.1431 -87.3814 268° West 340 391 10,000 -484 Descending Chicago Center
11:52AM 43.1461 -87.4983 272° West 335 386 10,000 -488 Level Chicago Center
11:53AM 43.1503 -87.6011 273° West 275 316 9,000 -1,561 Descending Chicago Center
11:54AM 43.1547 -87.7158 273° West 253 291 6,800 -2,390 Descending Chicago Center
11:55AM 43.1575 -87.8117 272° West 252 290 4,100 -1,902 Descending Chicago Center
11:56AM 43.1231 -87.8619 227° Southwest 223 257 2,900 -634 Descending Chicago Center
11:57AM 43.0744 -87.8731 189° South 196 226 2,800 -146 Descending Chicago Center
11:58AM 43.0406 -87.8786 187° South 159 183 2,600 -439 Descending Chicago Center
11:59AM 43.0097 -87.8836 187° South 130 150 1,900 -439 Descending Chicago Center
12:00PM 42.9728 -87.8906 188° South 124 143 1,700 -194 Descending Chicago Center
12:02PM 42.9469 -87.8971 195° South  Level Estimated
12:09PM 42.9469 -87.8971 195° South  Level Estimated